Voltar ao catálogo

STARLINK-31742

AtivoComunicaçõesVLEO
NORAD 59499·PAYLOAD·🇺🇸 United States

Lançado Apr 13, 2024 de Cape Canaveral Space Force Station

Loading…

Próximas Passagens (próximas 24 horas)

TLE

AtualizadoSource: CelesTrak SupGP

Época: Sep 15, 2026, 01:59 UTC

1 59499C 24071R   26258.08312500  .00030166  00000+0  10924-2 0  2583
2 59499  43.0023 349.9394 0001539 264.9657  83.1339 15.27570548    10

Acompanhe STARLINK-31742 em tempo real com AllMySat

Download on the App Store